Home   Weather   Maraimalai Nagar   Past weeks

Flag for India Past Weather in Maraimalai Nagar, Tamil Nadu, India — Yesterday and Last 2 Weeks

Now
95 °F

Passing clouds.


Feels Like: 107 °F
Forecast: 80 / 102 °F
Wind: 12 mph from Southwest

Location: Madras / Minambakkam

Current Time: Apr 27, 2017 at 10:51:53 am

Latest Report: Apr 27, 2017 at 10:30 am


Visibility: 4 mi

Pressure: 29.83 "Hg

Humidity: 53%

Dew Point: 75 °F

Location of Maraimalai NagarLocation

Past Weather in Maraimalai Nagar — Graph

°F

Maraimalai Nagar Temperature Yesterday

Maximum temperature yesterday: 99 °F (at 11:30 am)
Minimum temperature yesterday: 84 °F (at 5:00 am)
Average temperature yesterday: 90 °F

High & Low Weather Summary for the Past Weeks

 TemperatureHumidityPressure
High106 °F (Apr 16, 2:00 pm)94% (Apr 13, 5:30 am)29.86 "Hg (Apr 13, 5:30 am)
Low79 °F (Apr 14, 4:30 am)23% (Apr 16, 2:30 pm)29.59 "Hg (Apr 16, 3:30 pm)
Average90 °F70%29.74 "Hg
* Reported Apr 12 9:30 am — Apr 27 10:00 am, Maraimalai Nagar, Weather by CustomWeather, © 2017

Note: Actual official high and low records may vary slightly from our data, if they occured in-between our weather recording intervals... More about our weather records

Advertising

Maraimalai Nagar Weather History for the Previous 24 Hours

Scroll right to see more
 ConditionsComfort  
Time TempWeatherWind HumidityBarometerVisibility
10:00 am
Thu, Apr 27
93 °FPassing clouds.14 mph56%29.83 "Hg4 mi
9:30 am93 °FPassing clouds.14 mph59%29.83 "Hg4 mi
9:00 am91 °FHaze.14 mph63%29.83 "Hg3 mi
8:00 am90 °FHaze.14 mph71%29.83 "Hg2 mi
7:00 am86 °FHaze.7 mph79%29.83 "Hg2 mi
6:30 am84 °FHaze.6 mph84%29.80 "Hg2 mi
6:00 am84 °FHaze.6 mph84%29.80 "Hg3 mi
5:30 am84 °FPassing clouds.6 mph84%29.80 "Hg4 mi
5:00 am84 °FPassing clouds.6 mph84%29.77 "Hg4 mi
4:30 am84 °FPassing clouds.6 mph84%29.77 "Hg4 mi
4:00 am84 °FPassing clouds.6 mph84%29.77 "Hg4 mi
3:30 am84 °FPassing clouds.6 mph84%29.77 "Hg4 mi
3:00 am86 °FPassing clouds.6 mph79%29.77 "Hg4 mi
2:30 am86 °FPassing clouds.6 mph84%29.77 "Hg4 mi
2:00 am86 °FPassing clouds.7 mph84%29.77 "Hg4 mi
1:30 am86 °FPassing clouds.7 mph89%29.77 "Hg4 mi
1:00 am86 °FClear.6 mph89%29.80 "Hg4 mi
12:30 am86 °FClear.3 mph89%29.80 "Hg4 mi
12:00 am86 °FClear.3 mph84%29.80 "Hg4 mi
11:30 pm
Wed, Apr 26
86 °FClear.5 mph84%29.83 "Hg4 mi
11:00 pm86 °FPassing clouds.3 mph84%29.83 "Hg4 mi
10:30 pm86 °FPassing clouds.No wind84%29.83 "Hg4 mi
10:00 pm86 °FPassing clouds.5 mph84%29.83 "Hg4 mi
9:30 pm86 °FPassing clouds.3 mph84%29.80 "Hg4 mi
9:00 pm86 °FPassing clouds.7 mph84%29.80 "Hg4 mi
8:30 pm86 °FPassing clouds.7 mph84%29.80 "Hg4 mi
8:00 pm88 °FPassing clouds.7 mph79%29.77 "Hg4 mi
7:30 pm88 °FPassing clouds.7 mph79%29.77 "Hg4 mi
7:00 pm88 °FHaze.9 mph79%29.74 "Hg3 mi
6:30 pm90 °FHaze.9 mph71%29.74 "Hg3 mi
6:00 pm91 °FHaze.9 mph67%29.74 "Hg3 mi
5:30 pm93 °FPassing clouds.12 mph63%29.71 "Hg4 mi
5:00 pm93 °FPassing clouds.9 mph63%29.71 "Hg4 mi
4:30 pm95 °FPassing clouds.12 mph60%29.71 "Hg4 mi
4:00 pm95 °FPassing clouds.14 mph60%29.71 "Hg4 mi
3:30 pm95 °FPassing clouds.12 mph60%29.71 "Hg4 mi
3:00 pm95 °FPassing clouds.14 mph63%29.71 "Hg4 mi
2:30 pm97 °FPassing clouds.12 mph60%29.74 "Hg4 mi
2:00 pm97 °FPassing clouds.14 mph60%29.74 "Hg4 mi
1:30 pm97 °FPassing clouds.13 mph60%29.74 "Hg4 mi
1:00 pm97 °FPassing clouds.12 mph60%29.77 "Hg4 mi
12:30 pm99 °FPassing clouds.10 mph57%29.77 "Hg4 mi
12:00 pm99 °FPassing clouds.10 mph53%29.80 "Hg4 mi
11:30 am99 °FScattered clouds.10 mph53%29.80 "Hg4 mi
11:00 am95 °FPassing clouds.8 mph60%29.83 "Hg4 mi
10:30 am95 °FPassing clouds.9 mph60%29.83 "Hg4 mi
10:00 am93 °FPassing clouds.9 mph63%29.83 "Hg4 mi
Weather by CustomWeather, © 2017

See weather overviewHow to use our weather pages